This demonstration page uses our WeatherBlox Daily Observations layout. Learn more.

Left ArrowRight Arrow

41.12389, -100.76542

Hourly Observations for December 25, 2017

Temp ( °F °C ) Dew Point ( °F °C ) Humidity (%) Winds ( mph kmh ) Pressure ( in mb ) Visibility ( mi km ) Precip ( " mm )
12:53 am 00:53 Clear 1 -17.2 -3 -19.4 83 83 SW 3 6 30.44 1031 10 16 0.00 0.00
1:53 am 01:53 Clear 2 -16.7 -2 -18.9 83 83 Calm 30.41 1030 10 16 0.00 0.00
2:53 am 02:53 Clear 3 -16.1 -1 -18.3 83 83 Calm 30.40 1029 10 16 0.00 0.00
3:53 am 03:53 Mostly Cloudy 4 -15.6 -1 -18.3 80 80 Calm 30.39 1029 10 16 0.00 0.00
4:53 am 04:53 Cloudy 6 -14.4 1 -17.2 79 79 Calm 30.37 1029 10 16 0.00 0.00
5:53 am 05:53 Cloudy 10 -12.2 0 -17.8 63 63 VRB 3 6 30.37 1028 10 16 0.00 0.00
6:53 am 06:53 Cloudy 11 -11.7 2 -16.7 67 67 ENE 7 11 30.40 1030 10 16 0.00 0.00
7:53 am 07:53 Cloudy 11 -11.7 2 -16.7 67 67 E 8 13 30.42 1030 10 16 0.00 0.00
8:53 am 08:53 Cloudy 10 -12.2 2 -16.7 69 69 E 6 9 30.42 1030 10 16 0.00 0.00
9:53 am 09:53 Cloudy 14 -10 2 -16.7 58 58 NE 15 24 30.42 1030 10 16 0.00 0.00
10:53 am 10:53 Cloudy 13 -10.6 3 -16.1 64 64 ENE 13 20 30.45 1031 10 16 0.00 0.00
11:26 am 11:26 Cloudy with Light Snow 12 -11.1 4 -15.6 70 70 E 14 22 30.50 1033 3 5 0.00 0.03
11:33 am 11:33 Cloudy with Light Snow 11 -11.7 4 -15.6 73 73 ENE 15 24 30.50 1033 2 3 0.00 0.03
11:45 am 11:45 Cloudy with Light Snow 12 -11.1 5 -15 73 73 ENE 12 19 30.50 1033 1 2 0.00 0.03
11:53 am 11:53 Mostly Cloudy with Light Snow 11 -11.7 5 -15 77 77 ENE 13 20 30.44 1031 1 2 0.00 0.03
12:00 pm 12:00 Mostly Cloudy with Light Snow 11 -11.7 5 -15 77 77 ENE 13 20 30.48 1032 1 1 0.00 0.03
12:53 pm 12:53 Mostly Cloudy with Snow 10 -12.2 4 -15.6 76 76 ENE 15 24 30.42 1030 1 1 0.02 0.51
1:26 pm 13:26 Cloudy with Light Snow 9 -12.8 4 -15.6 80 80 ENE 13 20 30.50 1033 1 2 0.01 0.25
1:35 pm 13:35 Cloudy with Light Snow 10 -12.2 3 -16.1 73 73 NE 12 19 30.48 1032 2 3 0.02 0.51
1:41 pm 13:41 Cloudy with Light Snow 9 -12.8 3 -16.1 77 77 ENE 14 22 30.50 1033 3 5 0.02 0.51
1:53 pm 13:53 Cloudy with Light Snow 9 -12.8 2 -16.7 73 73 ENE 12 19 30.41 1030 3 4 0.02 0.51
1:58 pm 13:58 Cloudy with Light Snow 9 -12.8 3 -16.1 77 77 ENE 14 22 30.50 1033 2 2 0.00 0.03
2:05 pm 14:05 Cloudy with Light Snow 9 -12.8 3 -16.1 77 77 ENE 13 20 30.50 1033 1 2 0.00 0.03
2:53 pm 14:53 Mostly Cloudy with Light Snow 9 -12.8 3 -16.1 77 77 ENE 9 15 30.42 1030 1 1 0.01 0.25
3:08 pm 15:08 Mostly Cloudy with Snow 8 -13.3 3 -16.1 80 80 ENE 9 15 30.50 1033 1 1 0.01 0.25
3:33 pm 15:33 Mostly Cloudy with Light Snow 8 -13.3 3 -16.1 80 80 ENE 8 13 30.53 1034 1 1 0.02 0.51
3:53 pm 15:53 Cloudy with Light Snow 8 -13.3 2 -16.7 76 76 ENE 12 19 30.45 1031 1 2 0.03 0.76
4:17 pm 16:17 Cloudy with Light Snow 7 -13.9 2 -16.7 80 80 ENE 10 17 30.53 1034 2 3 0.00 0.03
4:25 pm 16:25 Cloudy with Light Snow 7 -13.9 1 -17.2 76 76 ENE 10 17 30.53 1034 3 4 0.00 0.03
4:53 pm 16:53 Cloudy with Light Snow 7 -13.9 1 -17.2 76 76 ENE 9 15 30.46 1031 5 8 0.01 0.25
5:53 pm 17:53 Cloudy 6 -14.4 0 -17.8 76 76 NE 8 13 30.48 1032 8 13 0.00 0.03
6:53 pm 18:53 Cloudy 5 -15 -1 -18.3 76 76 NE 7 11 30.50 1033 10 16 0.00 0.03
7:53 pm 19:53 Cloudy 5 -15 -1 -18.3 76 76 ENE 6 9 30.51 1033 10 16 0.00 0.03
8:53 pm 20:53 Cloudy 4 -15.6 -2 -18.9 76 76 NE 9 15 30.52 1033 10 16 0.00 0.00
9:53 pm 21:53 Cloudy 4 -15.6 -2 -18.9 76 76 NE 6 9 30.54 1034 10 16 0.00 0.00
10:48 pm 22:48 Cloudy with Light Snow 3 -16 -2 -19 78 78 NNE 3 6 30.71 1040 2 3 0.00 0.03
10:53 pm 22:53 Cloudy with Light Snow 4 -15.6 -1 -18.3 80 80 Calm 30.57 1035 2 3 0.00 0.03
11:10 pm 23:10 Cloudy with Light Snow 4 -15.6 -1 -18.3 80 80 NNE 3 6 30.68 1039 3 4 0.00 0.03
11:26 pm 23:26 Cloudy with Light Snow 4 -15.6 -2 -18.9 76 76 NNE 5 7 30.71 1040 1 2 0.01 0.25
11:41 pm 23:41 Cloudy with Light Snow 4 -15.6 -1 -18.3 80 80 N 5 7 30.71 1040 2 3 0.01 0.25
11:53 pm 23:53 Cloudy with Light Snow 4 -15.6 -1 -18.3 80 80 NNE 5 7 30.58 1036 2 2 0.02 0.51

Powered by AerisWeather